Regional Weather Roundup
Issued by NWS

Home | Current Version | Previous Version | Text Only | Print | Product List | Glossary On
Versions: 1 2 3 4 5 6 7 8 9 10 11 12 13 14 15 16 17 18 19 20 21 22 23 24 25 26 27 28 29 30 31 32 33 34 35 36 37 38 39 40 41 42 43 44 45 46 47 48 49 50
000
ASUS43 KOAX 300202
RWRNE

WEATHER ROUNDUP FOR NEBRASKA
NATIONAL WEATHER SERVICE OMAHA NE
900 PM CDT MON SEP 29 2014

NOTES: SATELLITE DATA IS BEING USED TO AUGMENT CLOUD COVER ABOVE
       12000 FEET.
       "FAIR" INDICATES FEW OR NO CLOUDS BELOW 12,000 FEET WITH NO
       SIGNIFICANT WEATHER AND/OR OBSTRUCTIONS TO VISIBILITY.

  * THESE STATIONS DO NOT REPORT WEATHER SUCH AS RAIN...SNOW OR FOG.

NEZ001>004-019>022-054>056-300300-
NEBRASKA PANHANDLE

CITY           SKY/WX    TMP DP  RH WIND       PRES   REMARKS
SCOTTSBLUFF    HVY RAIN  57  56  96 NW17G23   29.80F FOG
ALLIANCE       TSTM      55  55 100 NE9       29.79S FOG
CHADRON        RAIN      53  53 100 N8        29.86F VSB 3/4
KIMBALL        DRIZZLE   55  53  94 NW17G23   29.79F
SIDNEY         TSTM      58  55  90 W7        29.76S FOG
$$

NEZ057>060-069>072-079>082-300300-
SOUTHWEST NEBRASKA

CITY           SKY/WX    TMP DP  RH WIND       PRES   REMARKS
NORTH PLATTE   CLOUDY    74  52  46 SE20G29   29.80S
IMPERIAL       MOCLDY    73  51  46 SE26G35   29.75S
LEXINGTON      CLOUDY    72  55  54 SE14      29.86R
MCCOOK         CLOUDY    74  52  46 SE17      29.81S
OGALLALA       CLOUDY    74  54  49 SE20G26   29.75R
$$

NEZ005>010-023>029-035>040-094-300300-
NORTH CENTRAL NEBRASKA

CITY           SKY/WX    TMP DP  RH WIND       PRES   REMARKS
VALENTINE      CLOUDY    64  60  87 E10       29.86S
AINSWORTH      CLOUDY    69  52  54 SE13      29.87S
BROKEN BOW     PTCLDY    70  54  56 SE12      29.88R
O`NEILL        CLEAR     65  58  78 E8        29.90S
ORD            CLEAR     68  54  60 SE8       29.88R
THEDFORD       CLOUDY    73  55  51 SE20G26   29.85S
$$

NEZ041-046>049-061>064-073>077-083>087-300300-
SOUTH CENTRAL NEBRASKA

CITY           SKY/WX    TMP DP  RH WIND       PRES   REMARKS
GRAND ISLAND   CLEAR     70  52  52 SE9       29.90S
AURORA         CLEAR     64  54  68 SE6       29.91S
HASTINGS       CLEAR     70  51  51 SE12      29.90S
HEBRON         CLEAR     65  53  65 SE3       29.90F
HOLDREGE       PTCLDY    69  53  56 SE14      29.88R
KEARNEY *      PTCLDY    70  52  52 E13       29.90R
YORK           CLEAR     68  57  68 SE10      29.91F
$$

NEZ011>018-030>034-042>045-300300-
NORTHEAST NEBRASKA

CITY           SKY/WX    TMP DP  RH WIND       PRES   REMARKS
NORFOLK        CLEAR     68  57  68 E8        29.92S
ALBION         CLEAR     67  56  67 SE7       29.91S
BLAIR          CLEAR     70  59  68 NE6       29.94S
COLUMBUS *     CLEAR     66  57  72 E6        29.92F
FREMONT        CLEAR     71  58  64 E5        29.93S
TEKAMAH        CLEAR     71  62  73 E8        29.94R
WAYNE          CLEAR     68  62  81 E12       29.95S
$$

NEZ050>053-065>068-078-088>093-300300-
SOUTHEAST NEBRASKA

CITY           SKY/WX    TMP DP  RH WIND       PRES   REMARKS
LINCOLN        CLEAR     72  55  55 E6        29.93S
OMAHA EPPLEY   CLEAR     72  59  63 SE6       29.94R
BEATRICE       CLEAR     70  56  63 SE6       29.92F
FALLS CITY     CLEAR     70  57  63 SE3       29.93S
NEBRASKA CITY  CLEAR     68  51  54 SE6       29.94S
PLATTSMOUTH    CLEAR     70  54  57 E3        29.94S
$$

NEZ044-045-051>053-067-300300-
OMAHA AREA

CITY           SKY/WX    TMP DP  RH WIND       PRES   REMARKS
OMAHA EPPLEY   CLEAR     72  59  63 SE6       29.94R
BLAIR          CLEAR     70  59  68 NE6       29.94S
FREMONT        CLEAR     71  58  64 E5        29.93S
MILLARD        CLEAR     68  61  78 CALM      29.93S
OFFUTT AFB     CLEAR     69  64  83 E5        29.93S
PLATTSMOUTH    CLEAR     70  54  57 E3        29.94S
WAHOO          FAIR      67  57  69 SE6       29.92F
$$


USA.gov is the U.S. government's official web portal to all federal, state and local government web resources and services.